Tracking 17154 objects as of 1-August-2015
HD Live streaming from Space Station

METEOR 2-6 DEB

Track METEOR 2-6 DEB now!
10-day predictions
METEOR 2-6 DEB is classified as:


NORAD ID: 31406
Int'l Code: 1980-073H
Perigee: 794.8 km
Apogee: 867.6 km
Inclination: 81.2 °
Period: 101.4 minutes
Semi major axis: 7202 km
RCS: 0.0145 m2 (small)
Launch date: September 9, 1980
Source: Commonwealth of Independent States (former USSR) (CIS)

Note: This is SATELLITE DEBRIS
Your satellite tracking list
Your tracking list is empty





NASA's NSSDC Master Catalog

Two Line Element Set (TLE):
1 31406U 80073H   15199.79319168  .00001866  00000-0  85472-3 0  9991
2 31406 081.2200 004.7471 0050525 212.3382 147.4695 14.20376717448224

Source of the keplerian elements: AFSPC

N2YO: 216